Oaxaca, Mexico

9:38 PM CDT on June 22, 2017 (GMT -0500)
Xoxocotlan International

Weather History for MMOX - March, 2013

Change the Weather History Date:

Saturday, March 2, 2013

  Actual Average Record
Temperature  
Mean Temperature 68 °F -  
Max Temperature 87 °F 85 °F 93 °F (1997)
Min Temperature 50 °F 53 °F 48 °F (1998)
Cooling Degree Days 4    
Growing Degree Days 18 (Base 50)    
Moisture  
Dew Point 31 °F    
Average Humidity 38    
Maximum Humidity 67    
Minimum Humidity 10    
Precipitation  
Precipitation 0.00 in - - ()
Sea Level Pressure  
Sea Level Pressure 30.26 in    
Wind  
Wind Speed 6 mph ()    
Max Wind Speed 18 mph    
Max Gust Speed -    
Visibility 8.4 miles    
Events      
Averages and records for this station are not official NWS values.
T = Trace of Precipitation, MM = Missing Value Source: Averaged Metar Reports

Daily Weather History Graph

Daily Weather History Graph

Search for Another Location

Airport or City:

Trip Planner

Search our weather history database for the weather conditions in past years. The results will help you decide how hot, cold, wet, or windy it might be!

Date:

Astronomy

Mar. 02, 2013 Rise Set
Actual Time 6:44 AM CST 6:34 PM CST
Civil Twilight 6:22 AM CST 6:55 PM CST
Nautical Twilight 5:57 AM CST 7:20 PM CST
Astronomical Twilight 5:32 AM CST 7:46 PM CST
Moon 11:18 PM CST (3/2) 10:04 AM CST (3/2)
Length of Visible Light 12h 33m
Length of Day
11h 49m
Waning Gibbous, 74% of the Moon is Illuminated
Mar 2
Waning Gibbous
Mar 4
Last Quarter
Mar 11
New
Mar 19
First Quarter
Mar 27
Full

Hourly Weather History & Observations

Time (CST) Temp. Dew Point Humidity Pressure Visibility Wind Dir Wind Speed Gust Speed Precip Events Conditions
5:45 AM 54 °F 41 °F 52% 30.10 in 6 mi NW 2.2 mph - -   Partly Cloudy
6:16 AM 51.8 °F 41.0 °F 67% 30.30 in 8.0 mi NW 8.1 mph - N/A   Overcast
6:50 AM 51.8 °F 41.0 °F 67% 30.31 in 8.0 mi North 6.9 mph - N/A   Overcast
7:45 AM 53.6 °F 41.0 °F 62% 30.33 in 8.0 mi North 6.9 mph - N/A   Overcast
8:45 AM 56 °F 41 °F 47% 30.20 in 6 mi NNE 2.2 mph - -   Partly Cloudy
8:45 AM 53.6 °F 41.0 °F 62% 30.36 in 8.0 mi NW 9.2 mph - N/A   Overcast
9:45 AM 53.6 °F 41.0 °F 62% 30.39 in 8.0 mi NNW 13.8 mph - N/A   Overcast
10:45 AM 57.2 °F 41.0 °F 55% 30.39 in 8.0 mi NW 11.5 mph - N/A   Overcast
11:45 AM 59 °F 40 °F 37% 30.24 in 6 mi ENE 17.9 mph - -   Partly Cloudy
11:45 AM 57.2 °F 39.2 °F 51% 30.15 in 8.0 mi NW 11.5 mph - N/A   Overcast
12:45 PM 57.2 °F 35.6 °F 44% 30.37 in 10.0 mi ENE 5.8 mph - N/A   Overcast
1:45 PM 60.8 °F 28.4 °F 29% 30.34 in 10.0 mi ENE 4.6 mph - N/A   Overcast
2:50 PM 68 °F 27 °F 12% 30.13 in 9 mi NNE 4.5 mph - -   Partly Cloudy
2:54 PM 62.6 °F 23.0 °F 22% 30.04 in 8.0 mi Calm Calm - N/A   Overcast
3:58 PM 62.6 °F 17.6 °F 18% 30.27 in 8.0 mi WNW 10.4 mph - N/A   Overcast
4:50 PM 62.6 °F 14.0 °F 15% 30.28 in 10.0 mi NW 11.5 mph - N/A   Overcast
5:50 PM 60 °F 18 °F 10% 30.13 in 12 mi NW 4.5 mph - -   Partly Cloudy
5:52 PM 59.0 °F 15.8 °F 19% 30.12 in 10.0 mi NNW 10.4 mph - N/A   Overcast
7:48 PM 51.8 °F 23.0 °F 33% 30.38 in 10.0 mi North 8.1 mph - N/A   Overcast
8:48 PM 52 °F 26 °F 24% 30.21 in 6 mi NNE 2.2 mph - -   Clear
8:53 PM 53.6 °F 24.8 °F 33% 30.27 in 10.0 mi North 5.8 mph - N/A   Scattered Clouds
9:55 PM 50.0 °F 26.6 °F 40% 30.41 in 10.0 mi North 5.8 mph - N/A   Partly Cloudy
11:50 PM 51 °F 24 °F 23% 30.23 in 6 mi NNW 4.5 mph - -   Clear